This is the latest recevied weather packets stored in our database for station/object CQ0XVC-11. If no packets are shown the sender has not sent any weather packets the latest 10 day(s).
| Time | Temp. | Humidity | Pressure | Rain* | Wind** | Luminosity | Snow |
|---|---|---|---|---|---|---|---|
| 1777577670 | 15° C | 59% | 1004.9 hPa | 0 mm | - | - | - |
| 1777577367 | 15° C | 57% | 1004.6 hPa | 0 mm | - | - | - |
| 1777577106 | 15° C | 58% | 1004.6 hPa | 0 mm | - | - | - |
| 1777577066 | 15° C | 58% | 1004.6 hPa | 0 mm | - | - | - |
| 1777576983 | 15° C | 63% | 1004.4 hPa | 0 mm | - | - | - |
| 1777576933 | 15° C | 63% | 1004.4 hPa | 0 mm | - | - | - |
| 1777576631 | 15° C | 57% | 1004.3 hPa | 0 mm | - | - | - |
| 1777576329 | 15° C | 57% | 1004.4 hPa | 0 mm | - | - | - |
| 1777576027 | 15° C | 57% | 1004.4 hPa | 0 mm | - | - | - |
| 1777575724 | 15.56° C | 56% | 1004.4 hPa | 0 mm | - | - | - |
| 1777575423 | 15.56° C | 55% | 1004.4 hPa | 0 mm | - | - | - |
| 1777575120 | 15.56° C | 55% | 1004.3 hPa | 0 mm | - | - | - |
| 1777574818 | 15.56° C | 55% | 1004.4 hPa | 0 mm | - | - | - |
| 1777574516 | 15.56° C | 55% | 1004.3 hPa | 0 mm | - | - | - |
| 1777574253 | 15.56° C | 55% | 1004.3 hPa | 0 mm | - | - | - |
| 1777574214 | 15.56° C | 55% | 1004.3 hPa | 0 mm | - | - | - |
| 1777573911 | 16.11° C | 54% | 1004.2 hPa | 0 mm | - | - | - |
| 1777573610 | 16.11° C | 54% | 1004.1 hPa | 0 mm | - | - | - |
| 1777573307 | 16.11° C | 54% | 1004 hPa | 0 mm | - | - | - |
| 1777573005 | 16.11° C | 53% | 1004 hPa | 0 mm | - | - | - |
| 1777572703 | 16.11° C | 53% | 1004 hPa | 0 mm | - | - | - |
| 1777572436 | 16.67° C | 52% | 1004 hPa | 0 mm | - | - | - |
| 1777572401 | 16.67° C | 52% | 1004 hPa | 0 mm | - | - | - |
| 1777572098 | 16.67° C | 53% | 1003.8 hPa | 0 mm | - | - | - |
| 1777571797 | 16.67° C | 51% | 1003.9 hPa | 0 mm | - | - | - |
* Rain since midnight (hover to see other rain measurements)
** Current wind speed in m/s (hover to see current wind gust speed)